Vorticity
3 2 4 14 34 15 4 14 15 12 48 26 17 19 13 4 12 6 7 2 -5 9 44 14 -6 23 4 26 8 6 24 23 18 17 16 16 10 6 6 7 13 9 6 5 5 8 8
5 5 7 13 34 11 9 6 15 8 58 47 18 26 5 0 17 18 8 5 -4 11 5 3 23 8 10 -17 0 19 -1 5 4 3 2 4 8 8 7 8 7 0 4 5 6 10 6
3 11 10 12 27 11 9 8 7 17 3 33 21 1 38 5 8 13 13 4 10 12 17 15 10 12 24 26 19 -43 7 8 4 8 10 10 8 7 8 8 17 10 10 10 10 12 12
6 12 -3 -1 19 15 14 7 9 13 16 5 7 9 16 16 7 11 23 -5 13 17 16 19 16 32 -5 13 11 11 10 7 6 10 8 8 7 6 6 5 4 5 15 23 9 4 6
8 10 -6 -3 10 27 10 7 5 10 17 11 10 10 13 17 6 8 15 16 -0 23 17 18 6 -9 -21 -18 29 7 34 8 3 6 7 6 6 5 6 5 11 16 1 10 19 8 4
9 10 6 2 8 16 22 13 10 9 2 9 12 11 15 19 21 15 9 15 -4 5 22 14 21 8 1 10 9 15 19 4 5 4 6 6 6 6 8 10 -1 -5 6 4 -1 -4 2
7 10 7 9 5 10 14 26 26 19 14 11 12 14 15 16 19 19 23 21 8 46 14 -4 11 -24 30 -0 11 -3 24 5 6 12 9 6 10 9 5 9 6 6 3 3 3 23 7
7 8 11 5 10 9 7 8 13 13 14 13 15 12 13 15 15 18 16 24 12 19 -1 -3 16 9 -7 2 7 2 14 5 13 5 6 4 11 11 12 12 8 6 5 6 20 -25 5
6 6 8 9 8 12 13 12 14 17 21 15 11 15 14 22 22 22 18 8 9 14 -2 1 8 26 16 16 18 8 16 5 10 11 7 12 5 2 6 1 2 5 3 6 14 -1 17
7 8 7 9 7 6 15 14 10 10 15 18 15 19 17 6 18 25 15 17 33 -12 -4 24 19 18 8 12 8 14 13 7 7 6 7 19 15 10 10 3 11 7 6 -7 7 19 -1
9 9 12 8 18 1 6 9 11 8 5 7 16 22 24 31 28 27 10 21 -5 -6 0 13 12 10 17 -10 18 5 3 5 5 3 7 7 4 3 2 8 6 -6 13 0 4 3 10
14 7 11 9 8 6 3 5 6 8 12 15 12 3 10 20 36 28 24 17 -26 1 5 13 16 13 4 11 4 6 8 8 8 7 5 2 4 1 5 5 9 -4 11 21 46 42 23
16 16 8 11 12 9 4 0 -5 -3 2 3 23 17 20 -8 -12 -19 7 -0 -7 16 3 17 30 8 -0 2 15 11 8 4 3 9 8 8 20 20 23 18 16 13 10 12 14 9 2
10 12 15 8 13 14 8 6 -1 1 3 5 5 34 23 25 17 16 18 16 15 26 35 22 3 -3 5 6 6 -1 5 3 5 5 -4 10 12 16 9 12 -3 7 10 -5 14 8 -5
10 12 11 12 6 17 10 10 12 8 4 5 8 9 21 30 21 19 36 11 18 10 16 2 1 5 3 12 10 5 3 14 13 20 -2 7 14 9 13 4 8 -6 16 -17 10 25 15
8 9 15 13 8 5 13 12 6 10 2 15 9 12 14 11 24 31 17 28 21 11 -5 -0 10 14 11 6 13 8 16 13 7 18 18 4 10 6 6 12 7 6 9 16 9 10 12
13 8 8 14 19 7 7 11 15 10 7 9 16 7 15 5 9 6 2 5 3 6 11 15 17 11 9 5 11 5 11 4 14 7 6 13 10 4 16 5 -3 13 3 15 18 8 8
11 12 9 8 12 24 6 9 12 12 16 7 18 18 20 -5 15 10 9 8 9 5 3 3 5 6 14 8 12 -3 12 19 2 5 6 8 8 9 -8 -1 -12 21 0 21 9 1 9
13 12 10 9 13 18 17 4 21 13 12 4 12 14 25 10 8 4 3 6 0 0 11 15 14 11 3 11 -2 9 10 9 8 8 11 11 -1 12 9 -1 -12 16 29 36 19 6 10
9 14 14 8 8 14 18 7 22 12 17 9 11 13 11 16 7 1 0 10 9 4 6 11 5 12 12 13 16 6 10 5 10 12 10 9 6 15 15 7 7 0 22 37 0 14 15
6 11 11 12 7 10 25 10 13 10 15 15 16 9 16 15 8 3 9 6 2 5 8 4 8 12 6 5 -1 10 13 4 6 6 13 7 9 9 7 1 4 8 8 23 12 4 21
-1 9 12 15 9 7 19 8 12 10 13 11 18 15 10 17 11 3 10 7 3 8 8 8 7 7 6 6 13 8 10 5 11 6 9 7 4 5 14 3 -1 -0 6 -3 3 18 13
0 9 9 11 12 8 8 20 14 10 8 10 13 13 13 16 15 6 5 8 5 4 5 6 7 7 5 5 5 4 3 7 8 7 13 7 12 10 8 3 15 24 4 0 1 2 -1
-1 8 11 11 13 10 8 11 17 10 8 11 11 16 12 3 17 9 2 3 6 4 6 4 5 7 6 4 5 7 7 5 2 5 7 6 8 19 4 20 16 4 9 5 7 8 12
-1 9 13 13 9 13 10 11 23 13 6 3 11 16 19 11 8 10 5 4 7 6 6 4 4 4 5 5 15 20 12 19 12 11 4 5 8 15 8 12 -1 34 14 5 6 7 9
3 10 11 15 7 12 10 9 10 23 10 6 5 11 18 21 13 8 3 3 7 6 5 4 4 4 3 4 10 10 11 0 20 11 13 7 5 10 10 11 5 3 10 10 5 21 23
9 7 15 7 5 17 11 8 10 12 18 10 6 7 10 18 23 12 13 10 7 10 3 8 4 4 6 8 13 18 12 1 22 9 10 6 13 16 17 -0 12 13 9 8 12 -3 12
9 10 17 8 9 17 11 9 8 10 13 17 9 5 8 8 16 17 15 11 9 9 6 5 12 23 15 15 12 12 5 9 8 -2 3 8 12 10 17 8 24 17 18 1 -0 1 7
11 9 9 7 9 11 12 11 7 9 9 13 15 12 6 5 3 13 13 12 14 15 15 9 -3 -10 -3 3 2 9 -7 -11 -11 7 5 29 8 -10 -12 -15 -25 -24 -18 3 10 9 14
Height
3080 3071 3061 3047 3036 3029 3021 3011 2999 2984 2969 2971 2978 2981 2988 2994 2996 2999 3002 3006 3006 3008 3011 3016 3019 3025 3032 3037 3036 3040 3045 3048 3051 3053 3056 3059 3061 3064 3066 3067 3068 3067 3068 3069 3069 3071 3069
3077 3070 3058 3047 3036 3030 3021 3012 3001 2989 2977 2967 2972 2979 2985 2992 2995 2996 2999 3004 3006 3009 3011 3014 3018 3024 3029 3031 3035 3040 3043 3047 3049 3051 3054 3057 3059 3062 3063 3064 3065 3063 3064 3066 3065 3067 3062
3079 3070 3059 3049 3037 3032 3023 3014 3007 2998 2990 2985 2984 2985 2986 2991 2994 2996 2997 3001 3005 3006 3010 3013 3016 3022 3026 3031 3034 3038 3041 3042 3046 3049 3053 3055 3057 3060 3061 3061 3061 3061 3061 3062 3062 3061 3059
3079 3071 3061 3053 3041 3034 3026 3017 3011 3005 2999 2995 2993 2992 2993 2994 2995 2996 2997 3000 3003 3006 3008 3013 3017 3018 3022 3030 3034 3037 3040 3040 3044 3048 3052 3053 3055 3057 3058 3059 3058 3060 3058 3058 3060 3058 3057
3080 3073 3064 3055 3046 3038 3030 3022 3013 3009 3004 2999 2996 2995 2995 2995 2994 2995 2997 2999 3002 3005 3008 3013 3019 3022 3025 3030 3035 3037 3039 3041 3043 3047 3050 3052 3054 3055 3056 3057 3058 3057 3055 3056 3057 3054 3051
3082 3074 3066 3059 3050 3041 3032 3026 3018 3013 3008 3003 2998 2996 2996 2994 2993 2994 2996 3001 3003 3007 3010 3016 3021 3028 3030 3034 3035 3037 3039 3042 3044 3047 3049 3051 3052 3053 3054 3056 3056 3054 3054 3053 3052 3052 3047
3084 3076 3068 3060 3053 3045 3038 3030 3023 3017 3012 3007 3002 2996 2994 2993 2992 2994 2996 3001 3008 3013 3014 3017 3022 3025 3030 3034 3036 3038 3040 3042 3044 3047 3048 3049 3051 3052 3052 3053 3053 3052 3052 3050 3049 3048 3040
3088 3080 3071 3062 3056 3049 3042 3036 3029 3022 3015 3009 3005 3000 2995 2993 2994 2994 2997 3001 3008 3013 3018 3022 3026 3029 3032 3035 3036 3038 3041 3044 3045 3045 3047 3049 3050 3051 3051 3052 3051 3051 3049 3047 3045 3045 3040
3091 3083 3074 3066 3059 3052 3046 3040 3035 3029 3022 3014 3008 3004 2999 2994 2995 2997 2999 3005 3009 3015 3020 3027 3029 3031 3034 3036 3037 3039 3042 3043 3044 3045 3047 3048 3050 3050 3051 3051 3050 3049 3048 3046 3044 3039 3034
3094 3086 3077 3070 3062 3056 3051 3045 3040 3035 3028 3021 3014 3008 3004 2999 3000 3000 3005 3009 3013 3020 3025 3033 3033 3034 3036 3037 3039 3041 3043 3046 3046 3047 3047 3047 3048 3049 3049 3050 3050 3047 3046 3044 3041 3040 3035
3096 3089 3081 3074 3067 3061 3055 3050 3044 3041 3036 3028 3022 3015 3010 3006 3003 3008 3012 3015 3020 3024 3030 3036 3035 3037 3038 3041 3042 3044 3046 3046 3047 3048 3049 3048 3048 3049 3049 3049 3049 3045 3044 3041 3038 3036 3033
3099 3092 3086 3078 3072 3065 3059 3054 3050 3045 3041 3036 3029 3025 3020 3018 3013 3013 3016 3021 3025 3028 3035 3037 3037 3040 3040 3041 3044 3045 3046 3047 3047 3048 3048 3048 3049 3048 3047 3047 3045 3044 3041 3037 3032 3032 3030
3102 3095 3088 3080 3075 3069 3063 3057 3052 3049 3044 3041 3036 3030 3028 3026 3025 3023 3024 3026 3028 3029 3039 3041 3040 3042 3044 3045 3047 3048 3047 3048 3049 3049 3047 3046 3046 3045 3044 3043 3043 3042 3040 3036 3034 3029 3025
3105 3098 3090 3084 3077 3073 3068 3063 3056 3052 3050 3044 3042 3036 3031 3029 3028 3027 3027 3028 3028 3038 3039 3042 3044 3046 3047 3048 3049 3049 3050 3049 3049 3050 3050 3048 3046 3044 3044 3043 3042 3040 3040 3039 3035 3031 3024
3106 3101 3094 3087 3081 3075 3070 3065 3061 3055 3052 3049 3044 3045 3038 3034 3033 3032 3031 3028 3036 3040 3044 3045 3047 3049 3049 3050 3051 3050 3050 3050 3050 3050 3052 3049 3046 3044 3044 3043 3043 3039 3037 3037 3033 3028 3025
3107 3101 3097 3090 3084 3078 3073 3068 3065 3061 3055 3053 3050 3050 3047 3043 3040 3039 3036 3034 3040 3044 3048 3050 3050 3050 3050 3051 3052 3052 3052 3051 3050 3050 3050 3050 3047 3044 3044 3043 3042 3040 3038 3035 3033 3029 3024
3110 3103 3097 3092 3086 3080 3074 3070 3066 3063 3059 3055 3054 3052 3052 3050 3049 3048 3041 3045 3048 3049 3050 3052 3053 3053 3053 3051 3052 3053 3053 3052 3051 3050 3050 3049 3048 3045 3043 3043 3041 3038 3036 3034 3033 3030 3026
3113 3106 3098 3093 3087 3081 3076 3072 3067 3063 3061 3057 3054 3054 3054 3054 3055 3051 3050 3050 3052 3054 3054 3054 3056 3056 3056 3054 3055 3054 3053 3052 3052 3051 3050 3049 3046 3042 3042 3042 3040 3037 3034 3031 3031 3031 3027
3114 3108 3100 3095 3088 3082 3076 3072 3067 3063 3062 3059 3055 3055 3057 3057 3057 3056 3055 3055 3057 3058 3058 3058 3058 3058 3057 3057 3058 3057 3055 3054 3052 3051 3050 3049 3047 3043 3041 3044 3041 3036 3032 3028 3028 3029 3028
3114 3108 3103 3095 3091 3084 3078 3072 3068 3064 3062 3060 3056 3056 3057 3059 3059 3059 3059 3059 3059 3060 3060 3060 3061 3060 3059 3059 3058 3058 3057 3055 3053 3051 3050 3050 3047 3046 3046 3044 3041 3037 3031 3028 3028 3028 3028
3115 3108 3104 3098 3091 3086 3079 3074 3070 3066 3061 3061 3057 3056 3057 3060 3063 3062 3061 3061 3062 3062 3062 3063 3063 3061 3061 3060 3059 3058 3057 3056 3054 3052 3051 3050 3048 3047 3045 3043 3042 3039 3036 3031 3030 3029 3029
3116 3108 3103 3099 3093 3087 3082 3076 3072 3069 3064 3062 3059 3057 3056 3060 3063 3062 3063 3063 3063 3063 3063 3064 3064 3062 3061 3061 3060 3059 3057 3056 3055 3054 3052 3050 3049 3047 3045 3044 3042 3040 3039 3036 3033 3031 3031
3116 3109 3102 3098 3095 3088 3084 3078 3074 3070 3067 3063 3061 3058 3058 3060 3062 3067 3068 3067 3066 3066 3065 3064 3064 3064 3063 3062 3060 3059 3058 3057 3055 3053 3052 3051 3048 3045 3043 3042 3040 3040 3039 3037 3036 3035 3034
3114 3108 3101 3097 3094 3090 3086 3081 3076 3072 3069 3066 3063 3062 3060 3060 3063 3062 3064 3066 3066 3066 3066 3065 3064 3064 3064 3061 3061 3060 3058 3056 3055 3053 3052 3051 3049 3047 3043 3040 3042 3037 3036 3036 3035 3034 3034
3111 3108 3101 3095 3093 3091 3086 3083 3078 3075 3070 3068 3065 3064 3062 3060 3061 3064 3066 3066 3066 3066 3065 3064 3063 3063 3061 3061 3060 3057 3056 3055 3054 3052 3051 3050 3049 3047 3044 3041 3037 3033 3034 3035 3034 3034 3032
3108 3104 3100 3094 3091 3089 3084 3081 3078 3075 3072 3070 3066 3064 3063 3061 3061 3060 3062 3064 3065 3065 3064 3062 3062 3062 3061 3060 3059 3057 3055 3053 3052 3051 3050 3049 3049 3049 3045 3043 3037 3032 3032 3032 3032 3030 3029
3104 3101 3098 3092 3087 3086 3082 3078 3077 3074 3073 3070 3068 3065 3063 3062 3058 3057 3058 3058 3060 3061 3062 3062 3059 3058 3058 3057 3057 3058 3055 3054 3051 3049 3048 3047 3045 3044 3044 3042 3035 3031 3030 3030 3032 3033 3027
3100 3097 3094 3089 3084 3082 3081 3078 3075 3073 3070 3070 3067 3064 3062 3062 3061 3057 3055 3056 3054 3055 3058 3059 3060 3055 3054 3054 3053 3052 3050 3051 3050 3048 3047 3045 3043 3040 3039 3038 3033 3030 3029 3030 3028 3025 3025
3094 3092 3090 3086 3081 3079 3077 3075 3072 3069 3068 3067 3066 3063 3060 3059 3060 3058 3055 3053 3054 3051 3051 3051 3055 3056 3055 3053 3051 3049 3048 3046 3043 3043 3042 3041 3039 3038 3036 3030 3027 3026 3026 3026 3024 3022 3022